RH
36 40 50 71 79 76 77 76 74 74 72 79 92 93 98 88 85 80 68 70 70 76 76 72 75 78 86 85 81 83 80 75
43 45 53 69 80 86 88 87 83 79 82 84 86 94 88 98 82 60 66 67 73 81 82 73 75 84 86 83 81 78 78 77
39 43 48 67 87 83 85 92 92 88 84 82 80 68 67 73 76 74 83 83 84 87 83 72 79 88 86 79 76 79 84 83
38 44 50 72 86 90 86 84 91 94 91 85 78 67 62 68 79 86 89 75 81 88 81 77 88 88 83 74 73 78 83 82
41 38 51 68 80 81 82 79 79 94 96 96 87 72 68 68 74 92 97 95 88 88 90 89 85 80 78 77 73 76 77 74
41 40 49 67 73 77 83 81 77 70 75 91 88 70 73 83 73 88 93 98 93 88 90 82 80 71 74 73 74 80 82 79
43 41 43 67 70 77 85 84 80 83 85 91 79 79 78 67 89 90 96 90 93 91 86 80 79 74 79 73 71 57 50 74
46 41 50 67 72 80 87 90 81 88 100 98 88 95 83 73 89 88 97 88 87 86 84 85 81 77 75 72 63 54 48 74
50 46 58 60 78 85 87 85 90 94 96 89 92 90 91 89 91 94 98 84 91 90 92 91 79 82 76 69 70 66 57 54
52 53 58 64 73 82 88 91 92 99 92 93 99 96 97 100 91 94 100 82 98 92 96 84 78 82 78 69 73 71 68 46
49 60 57 70 77 88 86 89 95 100 100 97 100 100 99 99 97 92 96 82 99 93 91 81 79 82 75 75 76 75 73 60
52 60 60 77 84 91 87 94 96 99 97 98 99 100 100 99 98 92 96 97 99 95 86 82 78 78 78 78 78 82 78 73
53 60 65 78 92 91 89 92 99 95 96 100 92 99 100 100 98 97 96 94 85 89 87 82 83 81 80 83 87 85 81 81
55 57 66 79 70 95 98 94 97 98 100 98 88 98 100 99 99 99 93 94 84 92 89 84 84 81 82 97 100 96 90 82
53 55 64 71 89 99 99 100 100 100 98 98 89 100 100 99 100 93 86 89 71 86 85 85 85 80 80 86 97 86 88 86
57 54 64 74 98 97 97 99 98 98 99 100 100 98 100 100 100 96 90 88 65 64 81 85 77 76 84 79 73 71 86 88
61 58 65 70 94 96 99 99 98 98 99 100 100 98 94 94 83 77 87 81 56 44 49 72 76 76 78 85 77 73 68 66
64 60 65 75 87 98 95 89 93 95 98 99 99 100 100 100 93 86 82 85 52 42 46 59 70 72 75 77 76 74 73 69
64 67 66 75 81 99 97 95 96 93 89 92 100 98 99 100 99 99 88 96 84 53 50 43 54 62 63 77 75 71 69 65
70 66 66 72 66 91 96 95 97 96 96 94 94 94 98 100 100 98 100 91 90 96 60 39 34 36 53 74 73 71 65 68
Wind_Speed
12 12 13 15 17 19 21 22 22 23 24 24 27 23 22 23 24 21 21 24 25 26 26 25 22 23 22 20 18 17 16 16
13 13 15 17 16 16 20 21 22 24 24 25 21 27 20 18 19 20 23 25 26 27 26 25 24 22 21 18 17 14 14 14
13 13 13 17 18 18 18 20 23 24 25 27 27 25 30 26 22 21 22 22 27 28 27 25 24 22 20 17 15 15 13 13
13 13 11 16 20 18 17 19 22 25 25 23 29 26 21 24 31 27 27 25 29 28 28 27 26 24 20 16 14 13 13 13
14 13 11 16 19 19 19 18 18 22 24 29 29 30 21 19 26 26 28 28 28 28 29 29 28 25 22 19 14 13 12 15
16 14 13 17 18 20 20 20 21 19 22 28 37 29 22 26 28 31 30 31 31 32 32 30 26 21 20 17 14 13 14 16
16 14 14 17 19 20 22 22 21 23 23 30 28 30 29 31 31 35 34 31 34 36 33 29 25 21 20 14 11 12 14 17
18 15 16 16 18 20 21 24 22 24 26 27 29 36 37 33 32 38 34 31 33 35 33 29 25 23 20 15 13 11 16 19
19 17 16 14 15 16 18 20 23 23 23 22 27 34 42 36 37 35 35 31 32 35 33 28 25 25 21 17 14 11 17 17
19 18 16 14 14 14 15 18 20 21 19 21 28 33 42 38 38 37 36 32 33 35 32 28 27 26 22 18 16 12 14 15
21 19 17 14 14 15 15 17 17 21 25 26 42 44 37 34 39 40 37 32 37 38 33 30 30 28 23 21 18 15 13 12
22 20 18 16 16 17 16 17 16 17 18 17 24 35 42 39 39 38 36 37 40 38 34 30 29 28 24 21 19 17 14 12
26 23 20 18 19 20 19 18 16 17 18 17 14 28 40 40 38 32 33 36 39 41 35 32 31 28 24 23 20 18 16 14
29 25 21 20 19 21 21 19 15 18 15 12 17 21 33 38 37 36 36 37 40 42 38 36 33 31 25 21 14 15 19 17
33 26 22 19 19 20 18 16 16 17 14 15 10 15 32 32 32 34 35 38 40 44 42 42 37 34 31 17 11 10 19 21
33 27 22 19 21 22 19 19 19 18 18 18 16 16 19 32 24 25 30 33 36 40 41 41 40 36 33 32 23 16 13 12
35 28 23 19 20 22 19 17 17 17 16 18 18 22 22 26 29 32 29 31 34 38 40 43 41 42 39 34 26 21 17 16
34 29 24 19 18 21 19 17 18 15 17 18 19 19 22 26 30 35 35 33 33 33 35 39 42 42 38 37 35 30 24 22
35 31 26 20 18 21 20 17 16 16 15 14 17 18 22 27 26 33 38 37 34 35 37 36 41 43 42 38 36 35 30 26
37 34 27 20 17 17 20 19 19 18 17 18 20 21 20 21 28 24 25 38 36 35 36 36 37 40 41 38 36 35 33 34
Wind_Direction
212 224 227 223 230 226 221 220 218 216 213 214 197 200 195 193 191 188 191 191 192 194 187 180 175 181 180 181 184 186 187 189
215 225 225 227 224 221 221 218 217 214 212 209 206 193 193 195 194 191 200 201 198 194 187 177 177 179 179 180 183 189 197 193
225 225 228 221 216 220 222 220 220 219 212 209 213 213 208 195 193 191 200 198 195 192 185 176 173 176 178 181 185 194 196 193
229 229 226 209 214 218 216 221 219 222 220 209 206 209 219 213 214 203 202 196 197 190 181 175 173 175 179 178 178 181 191 194
230 234 221 211 211 213 214 215 222 222 222 216 207 200 212 217 207 200 193 190 194 185 178 175 180 178 177 177 180 188 195 187
230 228 221 215 213 216 219 222 220 222 231 219 201 210 201 184 195 195 193 190 193 184 180 181 181 179 178 178 185 197 193 178
228 230 231 220 215 218 219 215 226 230 224 205 215 212 205 201 204 195 196 193 194 189 185 184 183 180 178 178 190 192 183 176
226 233 233 225 218 219 219 213 225 233 225 220 226 219 214 208 197 193 194 193 200 197 189 189 186 182 179 176 178 178 182 177
222 231 228 223 214 208 211 216 223 227 226 223 220 216 209 201 199 204 196 190 202 197 192 192 187 182 181 176 173 175 182 178
224 228 226 217 209 206 211 225 223 220 224 225 220 215 204 201 207 201 195 194 200 199 193 192 190 187 181 181 174 179 182 184
227 225 229 215 209 204 209 223 223 223 228 232 216 205 203 209 206 200 196 195 198 197 193 197 191 188 187 185 183 183 183 184
224 225 226 213 212 210 214 225 220 213 217 219 217 215 201 200 196 198 199 196 196 197 198 196 195 190 191 191 190 192 194 194
219 222 220 211 210 209 208 222 207 212 214 225 226 226 212 207 215 209 200 198 199 200 197 195 192 192 191 192 194 198 201 205
218 221 222 214 213 204 205 217 215 209 214 230 223 222 206 211 212 205 198 200 201 201 199 195 196 195 195 181 181 204 212 207
217 218 221 215 205 204 210 209 206 199 194 209 222 219 209 195 209 189 195 204 203 202 203 202 196 197 202 188 170 202 205 213
213 215 218 212 203 206 210 204 198 197 195 198 203 180 194 198 201 198 202 204 207 206 209 209 211 201 200 208 206 207 185 207
208 211 216 213 201 207 206 209 209 211 202 202 203 194 188 186 194 199 206 205 210 211 210 211 213 212 207 203 209 211 217 212
205 208 213 211 201 202 207 213 210 209 200 200 208 211 214 210 203 206 204 205 208 212 215 216 217 221 220 215 214 216 220 219
202 205 210 209 203 198 207 215 218 219 217 226 219 226 228 228 222 212 210 213 207 211 215 217 221 224 223 225 230 234 234 239
196 201 205 206 201 197 201 213 220 222 227 232 238 245 239 230 222 230 219 212 211 217 216 218 219 229 226 226 230 236 242 242